Tracking 28125 objects as of 2-Oct-2023
HD Live streaming from Space Station
objects crossing your sky now

THORAD DELTA 1 DEB

Track THORAD DELTA 1 DEB now!
10-day predictions


NORAD ID: 14879
Int'l Code: 1974-089ES
Perigee: 1,447.7 km
Apogee: 1,791.5 km
Inclination: 101.2 °
Period: 118.5 minutes
Semi major axis: 7990 km
RCS: 0.0345 m2 (small)
Launch date: November 15, 1974
Source: United States (US)
Launch site: AIR FORCE WESTERN TEST RANGE (AFWTR)

Note: This is SATELLITE DEBRIS
Your satellite tracking list
Your tracking list is empty




NASA's NSSDC Master Catalog

Two Line Element Set (TLE):
1 14879U 74089ES  23273.54412411  .00000049  00000-0  81535-3 0  9994
2 14879 101.2152 295.0485 0215126 100.8405  25.7908 12.15448511767060
Source of the keplerian elements: AFSPC